www.pogodaiklimat.ru

Погода и климат >> Архив погоды >> Иран >> Tehran


АРХИВ ПОГОДЫ в Tehran

Время (UTC), дата Ветер
(напр.,м/с)
 
Видим.   Явления Облачность Т
(С)
Тd
(С)
f
(%)
Тe
(С)
Тes
(С)
Комфортность P
(гПа)
Po
(гПа)
Тmin
(С)
Tmax
(С)
R
(мм)
R24
(мм)
S
(см)
09 11.08 ЮВ 5 10 км ясно +34.8 +9.3 21 +33 +44 жарко 1004.1 880.6
12 11.08 ЮЗ 2 10 км 1/1 1200 м
[Cu hum]
+37.0 +1.7 11 +34 +42 очень
жарко
1002.3 878.7
15 11.08 ЮВ 2 10 км ясно +36.2 +2.3 12 +33 +33 жарко 1001.7 878.0 +37.4
18 11.08 СВ 2 10 км ясно +31.9 +8.2 23 +31 +31 жарко 1002.6 879.3
21 11.08 З 3 10 км ясно +28.4 +10.6 33 +29 +29 жарко 1003.0 879.8
00 12.08 С 2 10 км ясно +27.7 +8.6 30 +28 +28 жарко 1002.6 879.7
03 12.08 С 2 10 км ясно +27.2 +10.8 36 +28 +29 жарко 1003.8 880.6 +25.6
06 12.08 ЮЗ 3 10 км ясно +30.4 +10.9 30 +31 +41 жарко 1004.7 881.2
09 12.08 ЮВ 5 10 км 1/1 1200 м
[Cu hum]
+33.6 +10.9 25 +33 +42 жарко 1003.3 879.9
12 12.08 ЮВ 5 10 км 3/3 1200 м
[Cu hum]
+36.1 +8.8 19 +34 +38 очень
жарко
1000.2 877.4
15 12.08 ЮВ 3 10 км 1/1 1200 м
[Sc diur, vesp]
+35.8 +5.2 15 +33 +33 жарко 999.2 876.3 +37.0
18 12.08 СВ 2 10 км ясно +32.4 +8.0 22 +31 +31 жарко 999.3 876.4
21 12.08 СВ 2 10 км 1/0
[Ac trans]
+31.2 +10.5 28 +31 +31 жарко 998.3 876.0
00 13.08 штиль 0 10 км 1/0
[Ac trans]
+28.6 +7.8 27 +28 +28 жарко 998.2 875.8
03 13.08 В 2 10 км 1/0
[Ac trans]
+30.6 +7.7 24 +30 +31 жарко 998.5 876.4 +27.4
06 13.08 ЮВ 4 10 км ясно +31.7 +6.7 21 +30 +39 жарко 1000.4 877.6
09 13.08 ЮВ 4 10 км 1/1 1050 м
[Cu hum]
+35.6 +6.8 17 +33 +45 жарко 998.2 876.2
12 13.08 В 4 10 км 1/1 1200 м
[Cu hum]
+37.2 +3.1 12 +34 +39 очень
жарко
996.7 874.6
15 13.08 ЮВ 4 10 км ясно +36.8 +1.5 11 +33 +33 жарко 995.7 874.0 +37.8
18 13.08 В 4 10 км ясно +34.9 +1.3 12 +32 +32 жарко 996.9 874.8
21 13.08 В 2 10 км ясно +31.9 +4.7 18 +30 +30 жарко 997.0 875.1
00 14.08 штиль 0 10 км ясно +28.1 +7.4 27 +27 +27 жарко 997.5 875.3
03 14.08 З 3 8000 м мгла ясно +26.7 +8.2 31 +27 +28 жарко 999.6 876.8 +26.4
06 14.08 ЮВ 4 10 км ясно +30.6 +5.1 20 +29 +37 жарко 1000.9 878.2
09 14.08 В 2 10 км ясно +32.8 +0.8 13 +30 +49 жарко 1000.0 877.2
12 14.08 Ю 4 15 км ясно +35.6 +0.6 11 +32 +38 жарко 998.2 875.4
15 14.08 ЮВ 5 12 км ясно +34.8 +1.2 12 +31 +31 жарко 998.0 874.8 +35.8
18 14.08 В 2 12 км ясно +33.0 +2.0 14 +30 +30 жарко 999.3 876.4
21 14.08 штиль 0 12 км ясно +28.2 +1.7 18 +26 +26 жарко 999.6 877.1
00 15.08 З 3 12 км ясно +24.2 +9.0 38 +25 +25 комфорт 1000.3 876.8
03 15.08 штиль 0 10 км ясно +23.5 +9.9 42 +25 +26 комфорт 1002.8 878.7 +21.4
06 15.08 ЮЗ 2 10 км ясно +29.0 +6.4 24 +28 +40 жарко 1003.4 879.8
09 15.08 Ю 6 10 км ясно +33.0 +2.0 14 +30 +37 жарко 1002.1 878.4
12 15.08 Ю 3 12 км ясно +35.5 +0.6 11 +32 +39 жарко 1000.7 876.8
15 15.08 ЮВ 3 12 км ясно +34.6 -0.1 11 +31 +31 жарко 1000.7 876.5 +36.3
18 15.08 С 2 10 км ясно +30.0 +6.6 23 +29 +29 жарко 1002.0 878.0
21 15.08 СВ 2 10 км ясно +27.2 +6.6 27 +27 +27 жарко 1002.0 878.5
00 16.08 З 3 10 км ясно +24.0 +8.8 38 +25 +25 комфорт 1002.5 878.6
03 16.08 З 3 10 км ясно +22.6 +8.7 41 +24 +25 комфорт 1005.0 880.4 +22.6
06 16.08 ЮВ 4 10 км ясно +30.8 +3.8 18 +29 +37 жарко 1006.0 881.8
09 16.08 В 3 10 км ясно +33.0 +4.7 17 +31 +46 жарко 1005.0 880.8
12 16.08 Ю 4 10 км ясно +35.8 +0.8 11 +32 +38 жарко 1003.1 879.0
15 16.08 ЮВ 4 10 км ясно +35.2 +0.3 11 +32 +32 жарко 1002.8 878.3 +36.0
18 16.08 С 2 10 км ясно +31.0 +5.4 20 +29 +29 жарко 1002.6 879.0
21 16.08 СВ 3 10 км ясно +29.9 +5.2 21 +28 +28 жарко 1001.9 878.8
00 17.08 СВ 2 10 км ясно +28.0 +5.6 24 +27 +27 жарко 1001.7 878.6
03 17.08 штиль 0 10 км ясно +28.0 +4.5 22 +27 +28 жарко 1002.9 879.6 +26.8
06 17.08 ЮВ 3 10 км ясно +32.2 +1.4 14 +29 +40 жарко 1003.7 880.2
09 17.08 ЮВ 6 10 км ясно +35.2 +1.5 12 +32 +39 жарко 1001.6 878.7
12 17.08 ЮВ 3 10 км 1/1 1200 м
[Cu hum]
+37.2 +0.5 10 +34 +40 очень
жарко
999.0 876.4
15 17.08 В 4 10 км ясно +36.5 0.0 10 +33 +33 жарко 997.8 875.2 +37.5
18 17.08 СВ 2 10 км ясно +32.5 +3.5 16 +30 +30 жарко 997.9 875.4
21 17.08 С 2 10 км ясно +29.9 +5.9 22 +28 +28 жарко 997.2 874.9
00 18.08 С 3 10 км ясно +28.4 +5.3 23 +27 +27 жарко 996.8 874.6
03 18.08 С 2 8000 м мгла ясно +27.9 +6.6 26 +27 +28 жарко 997.6 875.2 +26.9

 

Местоположение метеостанции Tehran (Иран): широта 35.68 долгота 51.32 высота над уровнем моря 1191 м.

В архиве по умолчанию представлена погода в Tehran за последнюю неделю. Архивные данные за месяц целиком и за предыдущие месяцы, начиная с января 2011 года, Вы можете получить, выбрав интересующий диапазон дат из раскрывающегося списка и нажав кнопку "Ввод!".


*Определитесь, кто Вы:
робот инопланетянин человек

Внимание! Время в таблицах - всемирное. Для получения местного времени необходимо прибавить поправку, которая в Tehran равна 3.5 ч.

Смотрите также архив погоды в соседних городах и на ближайших метеорологических станциях:

Погода в Noshahr (Иран) (109 км)
Погода в Ghazvin (Иран) (135 км)
Погода в Ramsar (Иран) (148 км)
Погода в Eskandar Kola (Иран) (160 км)
Погода в Babolsar (Иран) (166 км)
Погода в Semnan (Иран) (187 км)
Погода в Kashan (Иран) (189 км)
Погода в Arak (Иран) (226 км)
Погода в Rasht (Иран) (227 км)
Погода в Anzali (Иран) (259 км)

Пояснения к столбцам:

Ветер - указаны скорость ветра в м/с - средняя за 10 мин, порывы в срок и между сроками (в фигурных скобках) и направление, откуда дует ветер: С - северный, СВ - северо-восточный, В - восточный, ЮВ - юго-восточный, Ю - южный, ЮЗ - юго-западный, З - западный, СЗ - северо-западный.
Видимость - горизонтальная дальность видимости в метрах или километрах. При видимости от 1 до 10 км при отсутствии осадков обычно наблюдается дымка, при ухудшении видимости до 1 км и менее - туман. В сухую погоду видимость может ухудшаться дымом, пылью или мглою.
Явления - указаны атмосферные явления, наблюдавшиеся в срок или в последний час перед сроком; фигурными скобками обозначены явления, наблюдавшиеся между сроками (за 1-3 часа до срока); квадратными скобками обозначены град или гололедные отложения с указанием их диаметра в мм.
Облачность - указаны через наклонную черту общая и нижняя облачность в баллах и высота нижней границы облаков в метрах; квадратными скобками обозначены формы облаков: Ci - перистые, Cs - перисто-слоистые, Cc - перисто-кучевые, Ac - высококучевые, As - высокослоистые, Sc - слоисто-кучевые, Ns - слоисто-дождевые, Cu - кучевые, Cb - кучево-дождевые. Подробнее классификацию облаков см. в Атласе облаков (PDF).
T - Температура воздуха - температура, измеренная на высоте 2 м над землей.
Td - Температура точки росы - температура, при понижении до которой содержащийся в воздухе водяной пар достигнет насыщения.
f - Относительная влажность воздуха - влажноcть воздуха, измеренная на высоте 2 м над землей.
Te - Эффективная температура - температура, которую ощущает одетый по сезону человек в тени. Характеристика душности погоды. При расчете учитывается влияние влажности воздуха и скорости ветра на теплоощущения человека.
Tes - Эффективная температура на солнце - температура, которую ощущает человек, с поправкой на солнечный нагрев. Характеристика знойности погоды. Зависит от высоты солнца над горизонтом, облачности и скорости ветра. Ночью, в пасмурную погоду, а также при ветре 12 м/с и более поправка равна нулю.
P - Атмосферное давление - приведенное к уровню моря атмосферное давление.
Po - Атмосферное давление - измеренное на уровне метеостанции атмосферное давление.
Tmin - Минимальная температура - минимум температуры воздуха на высоте 2 м над землей.
Tmax - Максимальная температура - максимум температуры воздуха на высоте 2 м над землей.
R - Количество осадков - Количество выпавших осадков за период времени, мм. При наведении курсора мыши на число - период времени, за который выпало указанное количество осадков.
R24 - Количество осадков - Количество выпавших осадков за 24 часа, мм.
S - Снежный покров - Высота снежного покрова, см. При наведении курсора мыши на число - состояние снежного покрова и степень покрытия местности в баллах.